User: anonymous   Login
Location: Fort Wayne
(41.1310°N, 85.1290°W)
Time: 15:27:46
(UTC-05:00)
Language:

Cosmos 1000 Rocket - Orbit

View from above orbital plane
View from above orbital plane
View from above satellite
View from above satellite

Ground track
Ground track

The orbit data is extracted from the following two-line orbital elements,

1 10777U 78034B   16345.52770860  .00000116  00000-0  10077-3 0  9994
2 10777  82.9424  10.9020 0026236   9.6915 154.6830 13.77380305944410
Epoch (UTC): 10 December 2016 12:39:54
Eccentricity: 0.0026236
inclination: 82.9424°
perigee height: 954 km
apogee height: 992 km
right ascension of ascending node: 10.9020°
argument of perigee: 9.6915°
revolutions per day: 13.77380305
mean anomaly at epoch: 154.6830°
orbit number at epoch: 94441

The dashed part of the orbit path shows where the satellite is in the earth's shadow,  

DLR